Find Thaicom 1

NORAD ID: 22931 Int'l Des: 1993-078 Owner: SHINW Country: T operational
HEOCIRCULAR

Current View

Loading 3D Globe...

About Thaicom 1

Thaicom 1 (NORAD 22931) is a satellite launched Dec 18, 1993 by SHINW of T. It operates in HEO, CIRCULAR orbit with a mass of 596.00 kg.

Upcoming Passes

Passes for default location (London). Set your location on the main map for personalized predictions.

Altitude History

Loading altitude history...

Two-Line Element Set

1 22931U 93078B 26195.21683476 -.00000133 00000-0 00000+0 0 9991
2 22931 11.9621 34.5718 0004619 199.2996 59.2371 0.99181385 46430
Epoch: Jul 14, 2026 • Age: 6 hours

Current Status

Altitude 36112.0 km
Apogee / Perigee N/A
Velocity 3.06 km/s
Sub-Earth Point -1.99°S, 77.81°W
Launch Date Dec 18, 1993
Age 32.5 years
Type other

Technical Details

Classification Payload
Mass 596.00 kg
Dry Mass 402.00 kg
Total Mass 1080.00 kg
Length 6.70 m
Diameter 2.20 m
Span 6.70 m
Shape Cyl
Manufacturer HSES
Bus Type HS-376L
Phase Status In Orbit
Owner/State SHINW/T

Most Searched